ONEWEB-0302, 49091

Orbit data source: Space-Track

ONEWEB-0302, 49091 is a payload satellite owned by One Web (NAA) (UK) in LEO that was launched on Sat, 21 Aug 2021 UTC via a SOYUZ-2-1B launch vehicle from the Tyuratam Missile And Space Complex (TTMTR). Payload-class satellites include a variety of spacecraft equipped with specific instruments for various scientific and technological missions. These include communications satellites like Starlink; space stations such as the ISS; scientific satellites like the Hubble; Earth observation satellites from companies like Planet Labs, Umbra, and HawkEye 360; GPS; miniature CubeSats for education and research; and military/defense satellites.

Loading next visibility...
Identifier
49091, 2021-075S
Orbit
LEO
Country
Flag of UKUK
Related business
Manufacturer
One Web
Mission
Operational Commercial Communications
Bus & Motor
ARROW, Unknown motor
Mass
148 kg wet, ~140 kg dry
Launch date (UTC)
2021-08-21 (5 years ago)
Launch vehicle
SOYUZ-2-1B
Launch site
Tyuratam Missile And Space Complex (TTMTR)
Object type
Payload
Rocket body
Debris
Shape & HBR
Trap Box + 2 Pan, 6.7 m
Radar Cross Section
3.464 m², Large (>1 m²)

Expand to show TLE details & history
Last TLE update: 22 hours ago

TLE from 22 hours ago
0 ONEWEB-0302
1 49091U 21075S   26175.24096158  .00000517  00000-0  14007-2 0  9991
2 49091  87.8953 349.2638 0002046  99.2801 260.8559 13.12443756235473
Epoch: 2026-06-24T05:46Z
TLE epoch observation values (Epoch: 2026-06-24T05:46:59.080Z)
Latitude
-0.00002°
Longitude
-9.88337°
Altitude
1,216.858 km
Speed
7.246 km/s
True Right ascension
23h 17m 03s
True Declination
0° 00' 00"
Sunlit
Object was in daylight at epoch
Visualization orbit readout
Latitude
Unknown
Longitude
Unknown
Altitude
Unknown
Speed
Unknown
Apparent Right ascension
Unknown
Apparent Declination
Unknown
Sunlit
N/A
Visualization observer readout
Local Sidereal Time
15:29:31
Azimuth
Unknown
Elevation
Unknown
Doppler factor
Unknown
Orbital elements
Apogee altitude
1,212.39 km
Perigee altitude
1,209.284 km
Semi-major axis
7,588.974 km
Eccentricity
0.0002
Inclination
87.8953°
RAAN
349.2638°
Arg. of periapsis
99.2801°
True anomaly
260.83275°
Mean anomaly
260.8559°
Eccentric anomaly
260.84433°
Mean motion
3.28298 °/min
Orbital period
109.66 mins
BSTAR
0.0014007
Loading maneuver chart data...
Computing Atmospheric mass density...
Loading historical data...
Loading historical data...
Loading historical data...
Loading historical data...
Loading historical data...
Loading historical data...
Loading historical data...

Documentation

Showing up to 5 results
|